Wind_Speed
15 13 15 18 19 25 21 24 25 24 22 23 21 23 25 20 21 20 30 33 33 24 16 5 5 9 15 19 23 24 26 28 29 29 29 30 31 29 33 34 37 38 38 34
12 16 16 22 26 26 19 23 25 22 18 19 22 24 20 22 21 20 19 13 13 12 13 12 11 15 19 23 26 30 31 31 31 29 29 28 31 33 33 32 27 26 30 28
14 19 17 18 18 20 20 22 20 21 21 17 18 22 17 21 21 30 5 7 9 7 10 14 19 22 24 26 28 30 33 33 35 35 32 34 34 35 38 38 38 40 35 35
11 9 21 21 20 18 20 17 20 19 15 10 8 17 23 19 19 9 11 2 4 10 14 20 24 25 25 27 29 31 33 32 32 31 31 32 34 34 33 32 36 39 38 38
15 19 21 19 15 18 13 12 18 20 18 15 21 6 6 13 7 6 4 6 10 14 21 25 26 27 27 28 29 30 31 33 32 32 32 33 35 39 34 35 40 33 34 35
18 24 13 16 12 12 13 8 16 16 12 6 16 8 3 7 7 5 7 11 16 22 25 26 26 28 30 29 29 30 32 34 33 35 35 34 36 39 35 37 34 36 37 35
22 13 10 13 4 7 3 4 7 4 3 6 13 11 6 14 5 6 4 12 21 25 26 27 29 30 31 31 32 31 31 34 34 33 36 38 42 40 43 36 38 38 36 38
8 13 10 12 10 13 11 3 3 7 4 10 16 5 4 10 10 8 8 17 23 25 27 28 30 31 32 32 33 35 38 42 41 41 42 42 42 47 45 43 39 39 37 40
8 7 16 16 3 5 3 3 4 7 8 3 4 7 9 11 6 7 12 19 21 28 29 32 34 39 37 37 36 35 37 40 40 40 40 40 41 43 47 44 46 40 45 37
5 18 15 18 3 6 5 7 5 2 4 6 7 11 5 7 6 11 14 10 22 28 32 37 38 37 36 35 36 36 36 38 40 41 40 42 41 42 45 44 44 43 42 46
13 6 12 7 3 15 7 4 3 4 1 3 9 8 4 3 3 6 6 15 22 27 31 34 36 36 38 37 36 36 36 35 36 37 39 41 42 43 46 45 45 41 41 43
4 7 8 14 12 1 2 3 2 1 6 3 5 15 1 5 5 2 7 18 22 25 32 35 37 38 41 41 40 39 36 34 31 33 36 39 41 41 40 43 45 41 43 42
7 3 11 8 6 3 3 3 3 3 3 7 7 10 7 21 13 13 9 22 24 26 32 36 38 39 41 44 43 41 37 35 33 29 31 35 39 40 42 42 46 47 36 48
9 3 4 10 8 10 11 10 4 4 3 8 9 18 19 19 17 15 18 22 25 29 30 35 38 40 42 45 46 44 40 38 32 26 24 29 33 37 39 43 45 51 38 42
1 5 4 8 12 13 14 15 9 5 10 8 16 15 21 17 14 9 22 22 27 28 33 36 38 40 43 47 48 46 43 38 31 27 20 21 32 35 36 39 43 52 39 38
3 4 3 7 10 7 7 10 9 11 8 5 8 12 10 9 16 10 19 22 25 29 34 38 39 40 41 44 47 48 46 40 38 35 22 0 14 20 27 34 38 47 37 39
2 2 2 5 2 5 4 4 4 3 2 4 3 6 10 12 9 8 19 21 23 28 33 36 38 38 38 43 46 50 47 43 42 41 35 18 15 17 17 22 26 34 39 38
3 2 3 4 5 2 3 3 2 5 6 5 9 12 9 10 17 17 12 16 22 27 31 33 35 36 38 41 43 51 50 47 47 45 46 35 29 24 25 26 25 29 30 46
6 2 3 1 2 9 4 3 2 3 6 4 5 8 9 22 15 5 11 14 18 23 26 29 30 31 35 39 43 47 49 51 52 51 52 48 41 31 29 29 29 35 46 40
4 8 1 3 2 3 2 5 2 1 2 2 3 6 7 16 6 4 20 16 16 20 24 28 29 31 33 36 40 43 45 50 53 51 50 46 47 55 50 47 49 53 54 52
5 2 5 5 4 3 3 4 2 3 5 12 8 12 8 3 6 19 19 15 15 19 22 25 27 31 33 34 38 41 41 46 47 45 45 53 57 54 53 54 56 54 60 63
2 1 2 3 2 4 1 5 3 7 19 18 18 17 17 18 20 17 13 15 14 16 20 23 27 30 31 33 36 39 43 43 45 46 47 50 51 50 50 50 51 54 53 50
3 4 3 2 4 15 19 10 14 13 16 16 16 20 20 19 18 17 11 13 14 15 18 20 24 26 29 32 35 38 39 39 42 43 48 48 48 48 50 51 51 50 49 49
5 6 3 3 5 6 17 5 9 13 18 20 16 18 20 19 17 15 13 11 13 14 15 18 21 24 27 30 32 33 33 34 37 40 42 44 47 48 49 50 50 48 46 43
7 7 7 12 16 14 9 10 13 23 18 17 19 18 17 18 17 13 14 11 12 12 13 15 18 21 24 26 29 30 31 32 33 35 37 40 40 42 44 45 44 44 42 40
6 5 4 5 3 5 9 15 21 15 16 21 25 27 22 17 18 15 13 13 11 11 12 12 14 17 19 21 25 28 29 31 31 33 35 35 34 35 36 36 36 37 36 35
Wind_Direction
307 301 275 279 278 280 300 301 294 287 289 291 282 283 283 285 289 285 279 275 268 272 292 67 358 319 307 300 292 287 285 280 279 278 273 271 264 273 275 271 266 264 264 261
302 274 294 318 304 295 298 293 298 298 302 304 297 288 292 281 274 282 302 324 38 11 357 359 332 313 301 292 288 285 281 279 278 276 273 269 271 268 260 262 263 270 267 264
297 287 308 302 303 308 296 302 310 304 304 294 295 292 299 294 298 282 53 29 47 22 355 335 320 306 299 295 291 287 282 278 273 271 271 264 260 261 260 257 262 258 255 259
283 324 305 306 303 296 307 313 303 301 308 292 319 290 290 290 282 255 122 67 15 354 337 327 316 308 304 298 294 288 287 285 283 281 277 274 268 265 261 262 266 265 265 261
272 296 307 299 287 295 299 315 310 297 285 290 283 258 267 265 31 42 81 44 1 338 332 322 313 309 305 301 298 293 289 286 283 279 276 273 268 260 264 262 255 255 260 260
265 282 273 289 303 283 311 310 297 280 266 251 262 298 266 328 27 38 48 9 348 335 321 316 312 311 306 302 297 292 290 286 282 275 270 266 267 261 263 258 253 256 248 250
309 284 295 316 337 310 52 322 308 314 332 269 321 327 267 288 79 81 32 359 334 323 322 319 318 315 309 304 301 296 292 287 283 277 271 264 258 262 257 257 256 244 252 246
299 305 312 334 306 297 301 277 288 295 291 303 308 263 274 56 82 90 4 331 321 325 321 320 315 312 310 307 301 297 290 284 282 277 272 264 261 257 255 252 252 250 241 243
319 309 332 303 4 324 293 234 288 292 252 267 241 277 319 72 59 17 330 338 333 325 326 321 320 319 317 314 309 304 299 294 288 282 277 269 262 256 253 253 248 248 234 241
298 301 307 283 328 295 221 319 323 278 298 305 291 300 304 354 346 343 341 332 330 324 324 325 326 326 324 321 319 316 309 300 292 284 274 269 263 254 250 251 251 240 241 233
309 240 319 315 358 303 283 268 255 269 258 300 324 298 232 239 244 305 328 328 324 322 322 322 323 329 331 330 328 323 317 307 294 283 275 270 263 257 247 244 247 235 234 237
288 306 291 292 295 155 255 276 273 261 311 285 266 294 245 184 245 355 332 318 317 318 317 320 330 334 338 337 336 331 324 313 303 290 279 270 263 255 247 239 238 226 233 227
298 224 303 314 325 57 289 166 238 276 252 249 280 282 292 319 328 334 315 314 317 319 326 332 336 339 342 342 341 336 332 326 317 297 282 269 261 253 244 235 231 217 225 226
347 314 244 279 279 291 293 294 269 197 252 287 267 293 304 314 317 320 315 318 327 331 331 337 341 345 345 348 346 345 343 338 329 311 291 268 253 244 238 232 228 214 215 225
242 249 229 252 262 276 262 266 277 217 250 265 293 305 297 305 305 295 310 326 334 334 341 345 345 349 351 350 351 356 352 348 347 341 318 260 246 239 235 228 223 215 215 220
219 279 340 289 248 248 257 269 267 269 278 270 283 284 265 294 325 320 326 332 333 337 346 349 353 357 355 354 355 360 357 358 6 2 9 214 235 221 222 220 217 214 216 220
256 343 305 265 252 310 310 259 224 283 194 174 281 269 319 323 328 314 322 326 333 342 350 350 354 359 358 359 3 5 5 11 18 17 34 90 147 179 194 207 214 211 216 203
267 172 225 272 332 342 247 4 141 208 247 232 272 284 301 302 308 305 312 323 338 348 352 353 358 0 8 5 14 13 19 25 22 23 37 67 88 122 167 178 184 191 195 198
204 181 279 205 282 269 101 348 332 96 294 244 295 305 307 327 316 282 332 340 344 349 353 355 3 6 15 12 20 20 19 28 32 37 43 51 60 91 108 122 135 145 165 149
218 205 256 337 261 270 227 307 177 114 248 341 272 281 314 333 344 281 334 335 349 354 360 359 6 14 19 20 25 27 22 32 37 42 48 47 59 80 78 85 96 106 112 108
313 289 209 252 289 293 235 306 293 287 291 314 308 318 320 324 282 304 313 321 341 351 1 4 8 16 20 23 28 31 28 33 41 47 50 58 67 71 76 84 87 93 98 99
237 322 320 339 279 317 127 323 4 290 314 312 320 328 324 326 326 319 307 312 332 348 359 6 10 17 21 26 31 31 32 34 41 46 51 58 64 69 73 78 83 85 88 89
299 199 224 237 251 301 311 271 315 323 310 315 321 321 329 322 326 319 312 309 322 340 354 2 10 14 21 27 31 36 33 34 41 43 50 56 63 64 68 71 73 76 82 87
265 282 221 339 272 289 305 289 343 333 326 322 326 327 326 322 323 316 304 296 308 328 347 357 4 15 19 25 31 37 41 40 43 45 47 51 56 61 63 67 70 71 74 76
265 292 259 274 280 298 276 344 333 318 318 317 318 329 329 324 326 316 303 291 295 311 334 351 1 10 18 21 26 33 39 47 49 52 53 51 51 54 58 60 60 68 65 69
222 230 221 261 130 246 277 311 320 306 317 317 314 313 314 316 316 320 301 292 280 290 315 339 356 5 13 21 23 27 36 41 48 51 52 54 56 55 58 60 64 66 66 68
Height
1465 1461 1454 1450 1449 1442 1443 1438 1433 1422 1418 1414 1409 1402 1393 1393 1390 1386 1383 1379 1376 1377 1380 1379 1382 1385 1385 1386 1387 1386 1385 1383 1382 1380 1378 1377 1376 1376 1374 1375 1377 1379 1383 1387
1463 1458 1450 1447 1445 1437 1433 1430 1427 1418 1414 1415 1406 1395 1392 1385 1381 1377 1374 1371 1371 1373 1378 1380 1381 1383 1384 1383 1381 1379 1377 1375 1374 1373 1371 1371 1369 1368 1369 1369 1369 1371 1374 1379
1465 1452 1449 1447 1440 1442 1438 1431 1423 1421 1412 1407 1403 1393 1389 1377 1376 1371 1369 1372 1373 1376 1379 1380 1381 1380 1379 1377 1375 1371 1368 1366 1364 1363 1362 1361 1360 1358 1358 1358 1359 1362 1366 1370
1457 1449 1450 1445 1442 1439 1433 1428 1422 1417 1415 1417 1407 1405 1388 1375 1367 1361 1366 1371 1373 1376 1378 1378 1377 1375 1372 1369 1367 1363 1360 1358 1356 1355 1353 1352 1351 1349 1349 1350 1351 1353 1356 1359
1454 1452 1448 1445 1439 1433 1433 1427 1426 1419 1416 1413 1402 1410 1383 1367 1366 1367 1369 1372 1374 1376 1376 1374 1372 1368 1364 1362 1359 1355 1352 1349 1347 1346 1345 1343 1341 1339 1340 1341 1342 1344 1347 1351
1451 1448 1444 1436 1431 1431 1429 1429 1422 1415 1411 1414 1395 1393 1379 1371 1369 1368 1372 1375 1376 1375 1373 1370 1367 1362 1357 1354 1351 1347 1343 1339 1338 1336 1334 1334 1332 1330 1332 1332 1333 1334 1339 1343
1446 1440 1437 1433 1437 1430 1435 1441 1429 1444 1425 1411 1381 1391 1381 1367 1368 1373 1377 1376 1374 1372 1369 1365 1360 1355 1351 1347 1343 1338 1334 1329 1328 1326 1323 1322 1319 1319 1320 1321 1322 1326 1328 1332
1448 1443 1436 1432 1434 1432 1430 1437 1437 1427 1426 1412 1392 1417 1379 1370 1375 1375 1377 1376 1373 1369 1366 1361 1357 1351 1345 1339 1334 1328 1323 1318 1317 1314 1310 1309 1308 1308 1307 1309 1312 1314 1318 1322
1451 1441 1439 1434 1430 1430 1431 1442 1426 1424 1423 1430 1402 1379 1369 1374 1377 1378 1377 1372 1370 1365 1361 1356 1350 1343 1336 1330 1324 1319 1312 1305 1302 1299 1297 1295 1295 1295 1294 1296 1300 1303 1308 1314
1461 1447 1440 1431 1429 1427 1429 1424 1433 1424 1428 1437 1403 1393 1387 1382 1383 1377 1375 1373 1369 1363 1358 1352 1345 1337 1331 1324 1316 1310 1303 1295 1289 1285 1283 1280 1280 1281 1281 1285 1286 1291 1297 1303
1458 1453 1440 1431 1440 1436 1429 1433 1425 1423 1429 1418 1409 1405 1389 1387 1385 1382 1377 1373 1368 1363 1356 1349 1340 1333 1325 1317 1309 1301 1293 1286 1279 1273 1268 1265 1264 1265 1267 1272 1274 1279 1287 1291
1457 1454 1450 1444 1430 1426 1429 1430 1425 1434 1439 1431 1428 1393 1386 1385 1382 1379 1375 1371 1366 1361 1353 1344 1336 1328 1319 1310 1301 1293 1283 1274 1267 1261 1255 1250 1249 1251 1254 1258 1262 1268 1275 1282
1457 1453 1447 1444 1435 1430 1428 1424 1428 1430 1430 1427 1425 1400 1382 1380 1379 1376 1374 1368 1365 1359 1350 1342 1333 1324 1315 1304 1292 1283 1274 1264 1255 1248 1241 1236 1234 1236 1238 1243 1248 1256 1263 1271
1453 1451 1459 1450 1451 1439 1435 1433 1432 1435 1438 1420 1414 1397 1387 1383 1381 1375 1370 1367 1363 1356 1349 1341 1331 1322 1313 1299 1287 1275 1264 1255 1244 1235 1227 1221 1219 1220 1224 1230 1236 1245 1253 1262
1451 1453 1457 1448 1439 1435 1434 1429 1427 1436 1422 1417 1401 1403 1390 1387 1381 1375 1371 1367 1361 1354 1346 1339 1331 1322 1310 1296 1282 1271 1258 1246 1235 1224 1215 1208 1206 1209 1214 1219 1227 1237 1246 1253
1445 1445 1448 1442 1434 1436 1435 1422 1421 1412 1408 1411 1409 1404 1388 1383 1379 1374 1371 1367 1360 1352 1346 1337 1332 1323 1310 1296 1283 1268 1255 1242 1228 1217 1204 1197 1196 1200 1206 1214 1221 1230 1239 1245
1444 1445 1450 1447 1431 1428 1422 1411 1416 1416 1411 1414 1410 1395 1386 1382 1380 1375 1371 1367 1361 1354 1347 1338 1333 1325 1312 1299 1284 1269 1255 1242 1228 1217 1204 1196 1196 1198 1205 1212 1218 1226 1234 1240
1439 1445 1444 1447 1433 1434 1413 1413 1413 1417 1412 1407 1401 1393 1388 1384 1379 1374 1372 1368 1361 1355 1349 1341 1336 1327 1315 1303 1289 1274 1258 1245 1233 1221 1211 1201 1200 1201 1207 1214 1219 1222 1228 1240
1438 1439 1443 1444 1448 1414 1403 1412 1415 1418 1411 1400 1400 1393 1388 1382 1376 1374 1372 1369 1363 1357 1352 1345 1341 1332 1322 1309 1295 1282 1268 1252 1239 1229 1217 1213 1213 1211 1213 1217 1219 1223 1229 1228
1433 1433 1437 1436 1435 1440 1418 1412 1409 1410 1406 1399 1398 1395 1389 1382 1381 1378 1372 1370 1365 1359 1354 1346 1343 1336 1328 1317 1304 1293 1279 1264 1249 1241 1234 1230 1224 1219 1223 1226 1226 1220 1226 1230
1445 1432 1439 1432 1425 1420 1410 1407 1406 1406 1409 1396 1395 1391 1388 1388 1384 1378 1372 1370 1367 1361 1356 1350 1344 1339 1333 1324 1312 1303 1293 1278 1270 1264 1252 1237 1226 1227 1227 1228 1229 1233 1228 1233
1446 1449 1422 1438 1435 1426 1407 1405 1411 1406 1398 1395 1392 1389 1386 1383 1379 1376 1373 1368 1367 1363 1358 1353 1346 1341 1338 1332 1322 1309 1298 1289 1281 1273 1262 1252 1250 1248 1246 1243 1244 1239 1239 1250
1440 1430 1435 1429 1422 1404 1406 1406 1404 1402 1398 1394 1391 1388 1385 1382 1378 1375 1374 1369 1367 1365 1360 1356 1351 1344 1340 1336 1330 1321 1311 1301 1292 1284 1277 1272 1266 1263 1261 1258 1255 1257 1263 1264
1423 1420 1423 1421 1408 1406 1403 1402 1402 1400 1397 1393 1390 1386 1383 1380 1377 1374 1373 1371 1367 1365 1363 1358 1354 1350 1342 1338 1336 1333 1327 1318 1308 1300 1293 1288 1283 1280 1275 1274 1275 1277 1280 1281
1422 1419 1416 1412 1405 1402 1399 1400 1399 1396 1393 1389 1386 1384 1382 1379 1376 1374 1371 1371 1369 1366 1364 1361 1357 1352 1349 1342 1339 1337 1333 1330 1322 1317 1312 1304 1299 1296 1293 1291 1296 1298 1298 1300
1413 1411 1412 1407 1403 1403 1399 1397 1396 1393 1391 1388 1383 1379 1378 1377 1374 1372 1370 1369 1368 1367 1365 1363 1361 1357 1353 1350 1344 1340 1338 1334 1332 1326 1321 1321 1319 1314 1312 1311 1312 1309 1310 1314